This is the latest recevied weather packets stored in our database for station/object 9W2GDL-10. If no packets are shown the sender has not sent any weather packets the latest 10 day(s).
| Time | Temp. | Humidity | Pressure | Rain* | Wind** | Luminosity | Snow |
|---|---|---|---|---|---|---|---|
| 1788088047 | 35° C | 59% | 1009.6 hPa | - | - | - | - |
| 1788087446 | 35° C | 59% | 1009.6 hPa | - | - | - | - |
| 1788086845 | 35° C | 59% | 1009.6 hPa | - | - | - | - |
| 1788086244 | 33.33° C | 63% | 1009.5 hPa | - | - | - | - |
| 1788085927 | 32.78° C | 53% | 1009.7 hPa | - | - | - | - |
| 1788085327 | 32.78° C | 51% | 1009.7 hPa | - | - | - | - |
| 1788084726 | 31.11° C | 48% | 1009.7 hPa | - | - | - | - |
| 1788084125 | 31.11° C | 44% | 1009.6 hPa | - | - | - | - |
| 1788083524 | 31.11° C | 44% | 1009.7 hPa | - | - | - | - |
| 1788082923 | 30.56° C | 45% | 1009.6 hPa | - | - | - | - |
| 1788082322 | 30° C | 46% | 1009.6 hPa | - | - | - | - |
| 1788081722 | 30.56° C | 46% | 1009.6 hPa | - | - | - | - |
| 1788081121 | 30° C | 47% | 1009.7 hPa | - | - | - | - |
| 1788080520 | 30.56° C | 48% | 1009.7 hPa | - | - | - | - |
| 1788079919 | 30.56° C | 48% | 1009.9 hPa | - | - | - | - |
| 1788079318 | 31.67° C | 48% | 1009.7 hPa | - | - | - | - |
| 1788078717 | 31.11° C | 49% | 1009.8 hPa | - | - | - | - |
| 1788078116 | 31.67° C | 49% | 1009.9 hPa | - | - | - | - |
| 1788077516 | 32.78° C | 48% | 1009.9 hPa | - | - | - | - |
| 1788076915 | 32.22° C | 50% | 1009.9 hPa | - | - | - | - |
| 1788076314 | 33.89° C | 52% | 1010 hPa | - | - | - | - |
| 1788075713 | 35.56° C | 58% | 1010.1 hPa | - | - | - | - |
| 1788075112 | 36.67° C | 57% | 1010.1 hPa | - | - | - | - |
| 1788074511 | 36.11° C | 57% | 1010.3 hPa | - | - | - | - |
| 1788073910 | 36.11° C | 57% | 1010.2 hPa | - | - | - | - |
* Rain since midnight (hover to see other rain measurements)
** Current wind speed in m/s (hover to see current wind gust speed)